| time (UTC) | temp F | wind direction | speed MPH | gust MPH | rain 1hr in | rain 24hr in | rain mn in | humidity % | barometer mb |
| 20260507010054 | 47 | 317 | 1.0 | 5.0 | 0.00 | 0.28 | 0.28 | 84 | 1016.2 |
| 20260507004541 | 47 | 268 | 2.0 | 3.0 | 0.00 | 0.28 | 0.28 | 85 | 1015.9 |
| 20260507003040 | 47 | 268 | 2.0 | 4.0 | 0.00 | 0.28 | 0.28 | 85 | 1015.8 |
| 20260507001546 | 47 | 297 | 2.0 | 7.0 | 0.00 | 0.28 | 0.28 | 85 | 1015.5 |
| 20260507000037 | 47 | 290 | 4.0 | 7.0 | 0.00 | 0.28 | 0.28 | 85 | 1015.3 |
| 20260506234535 | 47 | 249 | 2.0 | 7.0 | 0.00 | 0.28 | 0.28 | 85 | 1015.2 |
| 20260506233038 | 47 | 244 | 4.0 | 7.0 | 0.00 | 0.28 | 0.28 | 85 | 1015.1 |
| 20260506231536 | 48 | 250 | 3.0 | 5.0 | 0.00 | 0.28 | 0.28 | 85 | 1015.1 |
| 20260506230031 | 48 | 244 | 3.0 | 5.0 | 0.00 | 0.28 | 0.28 | 85 | 1014.9 |
| 20260506224530 | 48 | 294 | 4.0 | 7.0 | 0.00 | 0.28 | 0.28 | 85 | 1014.9 |
| 20260506223027 | 48 | 318 | 2.0 | 10.0 | 0.00 | 0.28 | 0.28 | 86 | 1014.6 |
| 20260506221527 | 48 | 314 | 3.0 | 10.0 | 0.00 | 0.28 | 0.28 | 86 | 1014.5 |
| 20260506220026 | 48 | 321 | 6.0 | 11.0 | 0.00 | 0.28 | 0.28 | 86 | 1014.3 |
| 20260506214525 | 48 | 311 | 5.0 | 13.0 | 0.00 | 0.28 | 0.28 | 87 | 1014.4 |
| 20260506213022 | 49 | 305 | 9.0 | 12.0 | 0.00 | 0.28 | 0.28 | 87 | 1014.2 |
| 20260506211520 | 49 | 327 | 5.0 | 12.0 | 0.00 | 0.28 | 0.28 | 88 | 1013.9 |
| 20260506210018 | 49 | 313 | 4.0 | 10.0 | 0.00 | 0.28 | 0.28 | 88 | 1013.5 |
| 20260506204516 | 48 | 313 | 5.0 | 14.0 | 0.01 | 0.28 | 0.28 | 89 | 1013.2 |
| 20260506203015 | 49 | 292 | 7.0 | 12.0 | 0.01 | 0.28 | 0.28 | 89 | 1013.0 |
| 20260506201518 | 49 | 310 | 3.0 | 9.0 | 0.02 | 0.28 | 0.28 | 89 | 1012.4 |
| 20260506200015 | 49 | 319 | 3.0 | 9.0 | 0.02 | 0.30 | 0.28 | 89 | 1012.4 |
| 20260506194511 | 49 | 301 | 8.0 | 12.0 | 0.01 | 0.28 | 0.28 | 89 | 1012.3 |
| 20260506193008 | 50 | 290 | 4.0 | 8.0 | 0.01 | 0.28 | 0.28 | 89 | 1012.3 |
| 20260506191507 | 50 | 250 | 4.0 | 8.0 | 0.00 | 0.28 | 0.27 | 89 | 1012.0 |
| 20260506190006 | 50 | 310 | 2.0 | 6.0 | 0.00 | 0.28 | 0.27 | 88 | 1011.9 |
| 20260506184515 | 50 | 303 | 4.0 | 9.0 | 0.00 | 0.28 | 0.27 | 88 | 1011.7 |
| 20260506183002 | 50 | 293 | 6.0 | 10.0 | 0.00 | 0.28 | 0.27 | 88 | 1011.7 |
| 20260506181558 | 51 | 310 | 3.0 | 10.0 | 0.00 | 0.28 | 0.27 | 88 | 1011.3 |
| 20260506180057 | 52 | 313 | 7.0 | 10.0 | 0.00 | 0.28 | 0.27 | 87 | 1011.2 |
| 20260506174600 | 53 | 323 | 5.0 | 11.0 | 0.00 | 0.28 | 0.27 | 87 | 1010.7 |
| 20260506173117 | 54 | 308 | 6.0 | 12.0 | 0.00 | 0.28 | 0.27 | 87 | 1010.5 |
| 20260506171551 | 58 | 250 | 6.0 | 11.0 | 0.00 | 0.28 | 0.27 | 87 | 1010.3 |
| 20260506170049 | 59 | 267 | 4.0 | 10.0 | 0.00 | 0.28 | 0.27 | 86 | 1009.9 |
| 20260506164548 | 60 | 251 | 4.0 | 8.0 | 0.01 | 0.28 | 0.27 | 86 | 1010.2 |
| 20260506163052 | 60 | 231 | 4.0 | 10.0 | 0.01 | 0.28 | 0.27 | 86 | 1009.9 |
| 20260506161548 | 59 | 246 | 6.0 | 11.0 | 0.01 | 0.28 | 0.27 | 86 | 1009.9 |
| 20260506160047 | 59 | 244 | 5.0 | 11.0 | 0.02 | 0.28 | 0.27 | 86 | 1010.2 |
| 20260506154544 | 59 | 267 | 4.0 | 8.0 | 0.02 | 0.28 | 0.26 | 87 | 1010.1 |
| 20260506153044 | 59 | 239 | 4.0 | 9.0 | 0.03 | 0.28 | 0.26 | 87 | 1009.9 |
| 20260506151538 | 58 | 214 | 6.0 | 10.0 | 0.04 | 0.28 | 0.26 | 88 | 1010.3 |
| 20260506150045 | 58 | 200 | 2.0 | 6.0 | 0.03 | 0.27 | 0.25 | 89 | 1010.1 |
| 20260506144555 | 58 | 237 | 2.0 | 7.0 | 0.03 | 0.26 | 0.24 | 89 | 1010.1 |
| 20260506143039 | 58 | 142 | 1.0 | 3.0 | 0.03 | 0.25 | 0.23 | 89 | 1010.0 |
| 20260506141533 | 57 | 142 | 0.0 | 3.0 | 0.04 | 0.24 | 0.22 | 89 | 1010.2 |
| 20260506140043 | 57 | 142 | 1.0 | 3.0 | 0.07 | 0.24 | 0.22 | 89 | 1010.4 |
| 20260506134533 | 56 | 134 | 1.0 | 3.0 | 0.10 | 0.23 | 0.21 | 89 | 1010.4 |
| 20260506133028 | 55 | 188 | 1.0 | 4.0 | 0.12 | 0.22 | 0.20 | 89 | 1010.6 |
| 20260506131535 | 55 | 261 | 0.0 | 1.0 | 0.13 | 0.20 | 0.18 | 89 | 1010.9 |
| 20260506130026 | 55 | 261 | 1.0 | 2.0 | 0.11 | 0.17 | 0.15 | 88 | 1011.2 |
| 20260506124524 | 55 | 261 | 1.0 | 3.0 | 0.07 | 0.13 | 0.11 | 88 | 1011.2 |
| 20260506123035 | 55 | 261 | 0.0 | 2.0 | 0.05 | 0.10 | 0.08 | 88 | 1010.7 |
| 20260506121522 | 54 | 261 | 0.0 | 2.0 | 0.02 | 0.07 | 0.05 | 88 | 1010.7 |
| 20260506120030 | 54 | 261 | 0.0 | 1.0 | 0.01 | 0.08 | 0.04 | 88 | 1010.5 |
| 20260506114521 | 54 | 261 | 0.0 | 3.0 | 0.01 | 0.08 | 0.04 | 87 | 1011.0 |
| 20260506113020 | 54 | 256 | 0.0 | 2.0 | 0.01 | 0.07 | 0.03 | 87 | 1011.2 |
| 20260506111520 | 54 | 256 | 1.0 | 3.0 | 0.01 | 0.07 | 0.03 | 87 | 1011.3 |
| 20260506110020 | 54 | 256 | 0.0 | 1.0 | 0.01 | 0.07 | 0.03 | 87 | 1011.0 |
| 20260506104524 | 53 | 256 | 0.0 | 2.0 | 0.02 | 0.07 | 0.03 | 86 | 1010.8 |
| 20260506103019 | 53 | 256 | 0.0 | 1.0 | 0.01 | 0.06 | 0.02 | 86 | 1011.0 |
| 20260506101518 | 53 | 256 | 0.0 | 1.0 | 0.01 | 0.06 | 0.02 | 86 | 1010.7 |
| 20260506100020 | 53 | 256 | 0.0 | 1.0 | 0.01 | 0.06 | 0.02 | 86 | 1010.6 |
| 20260506094516 | 53 | 256 | 1.0 | 2.0 | 0.01 | 0.05 | 0.01 | 85 | 1010.7 |
| 20260506093020 | 53 | 256 | 0.0 | 2.0 | 0.01 | 0.05 | 0.01 | 84 | 1010.7 |
| 20260506091514 | 54 | 256 | 0.0 | 2.0 | 0.01 | 0.05 | 0.01 | 84 | 1010.8 |
| 20260506090013 | 54 | 256 | 0.0 | 2.0 | 0.01 | 0.05 | 0.01 | 83 | 1010.9 |
| 20260506084511 | 53 | 256 | 0.0 | 2.0 | 0.00 | 0.04 | 0.00 | 83 | 1011.2 |
| 20260506083012 | 53 | 256 | 1.0 | 6.0 | 0.00 | 0.04 | 0.00 | 83 | 1011.5 |
| 20260506081515 | 54 | 272 | 2.0 | 3.0 | 0.00 | 0.04 | 0.00 | 82 | 1011.5 |
| 20260506073006 | 55 | 44 | 0.0 | 3.0 | 0.00 | 0.04 | 0.00 | 82 | 1011.1 |
| 20260506071506 | 55 | 44 | 1.0 | 3.0 | 0.00 | 0.04 | 0.00 | 82 | 1011.2 |
| 20260506061602 | 55 | 44 | 0.0 | 2.0 | 0.00 | 0.04 | 0.00 | 81 | 1011.8 |
| 20260506044553 | 56 | 20 | 0.0 | 2.0 | 0.00 | 0.04 | 0.00 | 80 | 1012.9 |
| 20260506043049 | 56 | 20 | 0.0 | 2.0 | 0.00 | 0.04 | 0.00 | 79 | 1013.1 |
| 20260506041548 | 56 | 20 | 0.0 | 3.0 | 0.00 | 0.04 | 0.00 | 78 | 1012.8 |
| 20260506040045 | 57 | 20 | 0.0 | 2.0 | 0.00 | 0.04 | 0.00 | 77 | 1013.1 |
| 20260506034602 | 57 | 20 | 1.0 | 4.0 | 0.00 | 0.04 | 0.04 | 76 | 1013.2 |
| 20260506033043 | 57 | 58 | 0.0 | 4.0 | 0.00 | 0.04 | 0.04 | 76 | 1013.5 |
| 20260506031550 | 58 | 58 | 4.0 | 8.0 | 0.00 | 0.04 | 0.04 | 75 | 1013.4 |
| 20260506030039 | 58 | 31 | 1.0 | 4.0 | 0.00 | 0.04 | 0.04 | 74 | 1013.3 |
| 20260506024538 | 59 | 49 | 0.0 | 9.0 | 0.00 | 0.04 | 0.04 | 74 | 1013.3 |
| 20260506023034 | 60 | 46 | 5.0 | 11.0 | 0.00 | 0.04 | 0.04 | 77 | 1013.3 |
| 20260506021531 | 62 | 28 | 1.0 | 9.0 | 0.00 | 0.04 | 0.04 | 78 | 1012.8 |
| 20260506020034 | 62 | 52 | 5.0 | 11.0 | 0.00 | 0.04 | 0.04 | 77 | 1012.7 |
| 20260506014530 | 63 | 350 | 3.0 | 5.0 | 0.00 | 0.04 | 0.04 | 77 | 1012.6 |
| 20260506013030 | 63 | 335 | 1.0 | 12.0 | 0.00 | 0.04 | 0.04 | 79 | 1012.5 |
| 20260506011525 | 63 | 355 | 3.0 | 8.0 | 0.00 | 0.04 | 0.04 | 81 | 1012.0 |